Denver Centennial, CO

11:45 PM MDT on August 20, 2017 (GMT -0600)
Centennial

Weather History for KAPA - September, 2012

Change the Weather History Date:

Monday, September 24, 2012

  Actual Average Record
Temperature  
Mean Temperature 65 °F -  
Max Temperature 76 °F 69 °F 82 °F (1998)
Min Temperature 53 °F 41 °F 28 °F (2000)
Growing Degree Days 15 (Base 50)    
Moisture  
Dew Point 38 °F    
Average Humidity 40    
Maximum Humidity 57    
Minimum Humidity 23    
Precipitation  
Precipitation 0.00 in - - ()
Month to date precipitation 1.37  
Year to date precipitation 11.75  
Sea Level Pressure  
Sea Level Pressure 29.92 in    
Wind  
Wind Speed 6 mph (WSW)    
Max Wind Speed 21 mph    
Max Gust Speed 31 mph    
Visibility 10 miles    
Events Rain    
Averages and records for this station are not official NWS values.
T = Trace of Precipitation, MM = Missing Value Source: NWS Daily Summary

Daily Weather History Graph

Daily Weather History Graph

Search for Another Location

Airport or City:

Trip Planner

Search our weather history database for the weather conditions in past years. The results will help you decide how hot, cold, wet, or windy it might be!

Date:

Astronomy

Sep. 24, 2012 Rise Set
Actual Time 6:49 AM MDT 6:52 PM MDT
Civil Twilight 6:22 AM MDT 7:19 PM MDT
Nautical Twilight 5:51 AM MDT 7:50 PM MDT
Astronomical Twilight 5:19 AM MDT 8:22 PM MDT
Moon 3:39 PM MDT (9/24) 1:09 AM MDT (9/24)
Length of Visible Light 12h 56m
Length of Day
12h 02m
Waxing Gibbous, 71% of the Moon is Illuminated
Sep 24
Waxing Gibbous
Sep 29
Full
Oct 8
Last Quarter
Oct 15
New
Oct 21
First Quarter

Hourly Weather History & Observations

Time (MDT) Temp. Dew Point Humidity Pressure Visibility Wind Dir Wind Speed Gust Speed Precip Events Conditions
12:53 AM 61.0 °F 34.0 °F 36% 29.95 in 10.0 mi South 6.9 mph - N/A   Partly Cloudy
1:53 AM 62.1 °F 34.0 °F 35% 29.94 in 10.0 mi SE 6.9 mph - N/A   Scattered Clouds
2:53 AM 59.0 °F 37.0 °F 44% 29.94 in 10.0 mi SW 3.5 mph - N/A   Scattered Clouds
3:53 AM 57.0 °F 35.1 °F 44% 29.94 in 10.0 mi Calm Calm - N/A   Scattered Clouds
4:53 AM 59.0 °F 37.9 °F 46% 29.93 in 10.0 mi SW 3.5 mph - N/A   Mostly Cloudy
5:53 AM 60.1 °F 37.0 °F 42% 29.94 in 10.0 mi SSW 5.8 mph - N/A   Mostly Cloudy
6:53 AM 64.9 °F 34.0 °F 32% 29.95 in 10.0 mi SSE 4.6 mph - 0.00 in   Mostly Cloudy
7:53 AM 66.9 °F 37.0 °F 33% 29.98 in 10.0 mi Variable 3.5 mph - 0.00 in Rain Light Rain
8:53 AM 64.9 °F 41.0 °F 42% 29.99 in 10.0 mi North 9.2 mph - 0.00 in   Overcast
9:53 AM 66.0 °F 39.0 °F 37% 29.99 in 10.0 mi WSW 5.8 mph - N/A   Mostly Cloudy
10:53 AM 68.0 °F 39.9 °F 36% 30.00 in 10.0 mi WSW 5.8 mph - N/A   Mostly Cloudy
11:53 AM 69.1 °F 39.0 °F 33% 29.99 in 10.0 mi WSW 5.8 mph - N/A   Mostly Cloudy
12:53 PM 69.1 °F 37.9 °F 32% 29.95 in 10.0 mi West 9.2 mph - N/A   Mostly Cloudy
1:53 PM 71.1 °F 37.9 °F 30% 29.91 in 10.0 mi WSW 12.7 mph - N/A   Scattered Clouds
2:53 PM 72.0 °F 35.1 °F 26% 29.88 in 10.0 mi WSW 9.2 mph 17.3 mph N/A   Mostly Cloudy
3:53 PM 73.9 °F 34.0 °F 23% 29.87 in 10.0 mi NNW 4.6 mph - N/A   Mostly Cloudy
4:53 PM 73.0 °F 34.0 °F 24% 29.85 in 10.0 mi Calm Calm - N/A   Mostly Cloudy
5:53 PM 70.0 °F 36.0 °F 29% 29.84 in 10.0 mi SSW 10.4 mph - N/A   Scattered Clouds
6:53 PM 66.9 °F 37.0 °F 33% 29.83 in 10.0 mi SSW 9.2 mph - N/A   Scattered Clouds
7:53 PM 64.9 °F 37.0 °F 36% 29.84 in 10.0 mi SSW 11.5 mph - N/A   Scattered Clouds
8:53 PM 64.0 °F 37.0 °F 37% 29.87 in 10.0 mi West 5.8 mph - N/A   Mostly Cloudy
9:53 PM 61.0 °F 44.1 °F 54% 29.91 in 10.0 mi NNW 13.8 mph - N/A   Mostly Cloudy
10:53 PM 59.0 °F 44.1 °F 58% 29.90 in 10.0 mi NNW 5.8 mph - N/A   Mostly Cloudy
11:53 PM 57.9 °F 43.0 °F 58% 29.91 in 10.0 mi NNW 4.6 mph - N/A   Scattered Clouds